Time,TemperatureF,DewpointF,PressureIn,WindDirection,WindDirectionDegrees,WindSpeedMPH,WindSpeedGustMPH,Humidity,HourlyPrecipIn,Conditions,Clouds,dailyrainin,SoftwareType,DateUTC
2013-09-08 00:00:00,75.9,71.1,30.09,NE,45,4.0,-999.0,85,0.00,,,0.00,Wunderground v.1.15,2013-09-08 10:00:00,
2013-09-08 00:05:00,75.9,71.1,30.09,NE,45,4.0,-999.0,85,0.00,,,0.00,Wunderground v.1.15,2013-09-08 10:05:00,
2013-09-08 00:10:00,75.9,71.1,30.09,NE,45,4.0,-999.0,85,0.00,,,0.00,Wunderground v.1.15,2013-09-08 10:10:00,
2013-09-08 00:15:00,75.9,71.1,30.09,NE,45,4.0,-999.0,85,0.00,,,0.00,Wunderground v.1.15,2013-09-08 10:15:00,
2013-09-08 00:20:00,75.9,71.1,30.09,NE,45,4.0,-999.0,85,0.00,,,0.00,Wunderground v.1.15,2013-09-08 10:20:00,
2013-09-08 00:25:00,75.9,71.1,30.09,NE,45,4.0,-999.0,85,0.00,,,0.00,Wunderground v.1.15,2013-09-08 10:25:00,
2013-09-08 00:30:00,75.9,71.1,30.09,NE,45,4.0,-999.0,85,0.00,,,0.00,Wunderground v.1.15,2013-09-08 10:30:00,
2013-09-08 00:35:00,75.9,71.1,30.09,NE,45,4.0,-999.0,85,0.00,,,0.00,Wunderground v.1.15,2013-09-08 10:35:00,
2013-09-08 00:40:00,75.9,71.1,30.09,NE,45,4.0,-999.0,85,0.00,,,0.00,Wunderground v.1.15,2013-09-08 10:40:00,
2013-09-08 00:45:00,75.5,71.4,30.08,NE,45,5.0,-999.0,87,0.00,,,0.00,Wunderground v.1.15,2013-09-08 10:45:00,
2013-09-08 00:50:00,75.5,71.4,30.08,NE,45,5.0,-999.0,87,0.00,,,0.00,Wunderground v.1.15,2013-09-08 10:50:00,
2013-09-08 00:55:00,75.5,71.4,30.08,NE,45,5.0,-999.0,87,0.00,,,0.00,Wunderground v.1.15,2013-09-08 10:55:00,
2013-09-08 01:00:00,75.5,71.4,30.08,NE,45,5.0,-999.0,87,0.00,,,0.00,Wunderground v.1.15,2013-09-08 11:00:00,
2013-09-08 01:05:00,75.5,71.4,30.08,NE,45,5.0,-999.0,87,0.00,,,0.00,Wunderground v.1.15,2013-09-08 11:05:00,
2013-09-08 01:10:00,75.5,71.4,30.08,NE,45,5.0,-999.0,87,0.00,,,0.00,Wunderground v.1.15,2013-09-08 11:10:00,
2013-09-08 01:15:00,74.9,70.1,30.08,NE,45,5.0,-999.0,85,0.00,,,0.00,Wunderground v.1.15,2013-09-08 11:15:00,
2013-09-08 01:20:00,74.9,70.1,30.08,NE,45,5.0,-999.0,85,0.00,,,0.00,Wunderground v.1.15,2013-09-08 11:20:00,
2013-09-08 01:25:00,74.9,70.1,30.08,NE,45,5.0,-999.0,85,0.00,,,0.00,Wunderground v.1.15,2013-09-08 11:25:00,
2013-09-08 01:30:00,74.9,70.1,30.08,NE,45,5.0,-999.0,85,0.00,,,0.00,Wunderground v.1.15,2013-09-08 11:30:00,
2013-09-08 01:35:00,74.9,70.1,30.08,NE,45,5.0,-999.0,85,0.00,,,0.00,Wunderground v.1.15,2013-09-08 11:35:00,
2013-09-08 01:40:00,74.9,70.1,30.08,NE,45,5.0,-999.0,85,0.00,,,0.00,Wunderground v.1.15,2013-09-08 11:40:00,
2013-09-08 01:45:00,74.9,69.4,30.07,NE,45,4.0,-999.0,83,0.00,,,0.00,Wunderground v.1.15,2013-09-08 11:45:00,
2013-09-08 01:50:00,74.9,69.4,30.07,NE,45,4.0,-999.0,83,0.00,,,0.00,Wunderground v.1.15,2013-09-08 11:50:00,
2013-09-08 01:55:00,74.9,69.4,30.07,NE,45,4.0,-999.0,83,0.00,,,0.00,Wunderground v.1.15,2013-09-08 11:55:00,
2013-09-08 02:00:00,74.9,69.4,30.07,NE,45,4.0,-999.0,83,0.00,,,0.00,Wunderground v.1.15,2013-09-08 12:00:00,
2013-09-08 02:05:00,74.9,69.4,30.07,NE,45,4.0,-999.0,83,0.00,,,0.00,Wunderground v.1.15,2013-09-08 12:05:00,
2013-09-08 02:10:00,74.9,69.4,30.07,NE,45,4.0,-999.0,83,0.00,,,0.00,Wunderground v.1.15,2013-09-08 12:10:00,
2013-09-08 02:15:00,74.8,70.0,30.06,NE,45,3.0,-999.0,85,0.00,,,0.00,Wunderground v.1.15,2013-09-08 12:15:00,
2013-09-08 02:20:00,74.8,70.0,30.06,NE,45,3.0,-999.0,85,0.00,,,0.00,Wunderground v.1.15,2013-09-08 12:20:00,
2013-09-08 02:25:00,74.8,70.0,30.06,NE,45,3.0,-999.0,85,0.00,,,0.00,Wunderground v.1.15,2013-09-08 12:25:00,
2013-09-08 02:30:00,74.8,70.0,30.06,NE,45,3.0,-999.0,85,0.00,,,0.00,Wunderground v.1.15,2013-09-08 12:30:00,
2013-09-08 02:35:00,74.8,70.0,30.06,NE,45,3.0,-999.0,85,0.00,,,0.00,Wunderground v.1.15,2013-09-08 12:35:00,
2013-09-08 02:45:00,74.5,69.0,30.06,East,90,2.0,-999.0,83,0.00,,,0.00,Wunderground v.1.15,2013-09-08 12:45:00,
2013-09-08 02:50:00,74.5,69.0,30.06,East,90,2.0,-999.0,83,0.00,,,0.00,Wunderground v.1.15,2013-09-08 12:50:00,
2013-09-08 02:55:00,74.5,69.0,30.06,East,90,2.0,-999.0,83,0.00,,,0.00,Wunderground v.1.15,2013-09-08 12:55:00,
2013-09-08 03:00:00,74.5,69.0,30.06,East,90,2.0,-999.0,83,0.00,,,0.00,Wunderground v.1.15,2013-09-08 13:00:00,
2013-09-08 03:05:00,74.5,69.0,30.06,East,90,2.0,-999.0,83,0.00,,,0.00,Wunderground v.1.15,2013-09-08 13:05:00,
2013-09-08 03:10:00,74.5,69.0,30.06,East,90,2.0,-999.0,83,0.00,,,0.00,Wunderground v.1.15,2013-09-08 13:10:00,
2013-09-08 03:15:00,75.3,69.1,30.05,East,90,2.0,-999.0,81,0.00,,,0.00,Wunderground v.1.15,2013-09-08 13:15:00,
2013-09-08 03:20:00,75.3,69.1,30.05,East,90,2.0,-999.0,81,0.00,,,0.00,Wunderground v.1.15,2013-09-08 13:20:00,
2013-09-08 03:25:00,75.3,69.1,30.05,East,90,2.0,-999.0,81,0.00,,,0.00,Wunderground v.1.15,2013-09-08 13:25:00,
2013-09-08 03:30:00,75.3,69.1,30.05,East,90,2.0,-999.0,81,0.00,,,0.00,Wunderground v.1.15,2013-09-08 13:30:00,
2013-09-08 03:35:00,75.3,69.1,30.05,East,90,2.0,-999.0,81,0.00,,,0.00,Wunderground v.1.15,2013-09-08 13:35:00,
2013-09-08 03:40:00,75.3,69.1,30.05,East,90,2.0,-999.0,81,0.00,,,0.00,Wunderground v.1.15,2013-09-08 13:40:00,
2013-09-08 03:45:00,74.8,69.6,30.05,East,90,2.0,-999.0,84,0.00,,,0.00,Wunderground v.1.15,2013-09-08 13:45:00,
2013-09-08 03:50:00,74.8,69.6,30.05,East,90,2.0,-999.0,84,0.00,,,0.00,Wunderground v.1.15,2013-09-08 13:50:00,
2013-09-08 03:55:00,74.8,69.6,30.05,East,90,2.0,-999.0,84,0.00,,,0.00,Wunderground v.1.15,2013-09-08 13:55:00,
2013-09-08 04:00:00,74.8,69.6,30.05,East,90,2.0,-999.0,84,0.00,,,0.00,Wunderground v.1.15,2013-09-08 14:00:00,
2013-09-08 04:05:00,74.8,69.6,30.05,East,90,2.0,-999.0,84,0.00,,,0.00,Wunderground v.1.15,2013-09-08 14:05:00,
2013-09-08 04:10:00,74.8,69.6,30.05,East,90,2.0,-999.0,84,0.00,,,0.00,Wunderground v.1.15,2013-09-08 14:10:00,
2013-09-08 04:15:00,74.8,69.6,30.05,NE,45,3.0,-999.0,84,0.00,,,0.00,Wunderground v.1.15,2013-09-08 14:15:00,
2013-09-08 04:20:00,74.8,69.6,30.05,NE,45,3.0,-999.0,84,0.00,,,0.00,Wunderground v.1.15,2013-09-08 14:20:00,
2013-09-08 04:25:00,74.8,69.6,30.05,NE,45,3.0,-999.0,84,0.00,,,0.00,Wunderground v.1.15,2013-09-08 14:25:00,
2013-09-08 04:30:00,74.8,69.6,30.05,NE,45,3.0,-999.0,84,0.00,,,0.00,Wunderground v.1.15,2013-09-08 14:30:00,
2013-09-08 04:35:00,74.8,69.6,30.05,NE,45,3.0,-999.0,84,0.00,,,0.00,Wunderground v.1.15,2013-09-08 14:35:00,
2013-09-08 04:40:00,74.8,69.6,30.05,NE,45,3.0,-999.0,84,0.00,,,0.00,Wunderground v.1.15,2013-09-08 14:40:00,
2013-09-08 04:45:00,75.1,68.5,30.06,ENE,68,3.0,-999.0,80,0.00,,,0.00,Wunderground v.1.15,2013-09-08 14:45:00,
2013-09-08 04:50:00,75.1,68.5,30.06,ENE,68,3.0,-999.0,80,0.00,,,0.00,Wunderground v.1.15,2013-09-08 14:50:00,
2013-09-08 04:55:00,75.1,68.5,30.06,ENE,68,3.0,-999.0,80,0.00,,,0.00,Wunderground v.1.15,2013-09-08 14:55:00,
2013-09-08 05:00:00,75.1,68.5,30.06,ENE,68,3.0,-999.0,80,0.00,,,0.00,Wunderground v.1.15,2013-09-08 15:00:00,
2013-09-08 05:05:00,75.1,68.5,30.06,ENE,68,3.0,-999.0,80,0.00,,,0.00,Wunderground v.1.15,2013-09-08 15:05:00,
2013-09-08 05:10:00,75.1,68.5,30.06,ENE,68,3.0,-999.0,80,0.00,,,0.00,Wunderground v.1.15,2013-09-08 15:10:00,
2013-09-08 05:15:00,75.4,68.1,30.06,ENE,68,2.0,-999.0,78,0.00,,,0.00,Wunderground v.1.15,2013-09-08 15:15:00,
2013-09-08 05:20:00,75.4,68.1,30.06,ENE,68,2.0,-999.0,78,0.00,,,0.00,Wunderground v.1.15,2013-09-08 15:20:00,
2013-09-08 05:25:00,75.4,68.1,30.06,ENE,68,2.0,-999.0,78,0.00,,,0.00,Wunderground v.1.15,2013-09-08 15:25:00,
2013-09-08 05:30:00,75.4,68.1,30.06,ENE,68,2.0,-999.0,78,0.00,,,0.00,Wunderground v.1.15,2013-09-08 15:30:00,
2013-09-08 05:35:00,75.4,68.1,30.06,ENE,68,2.0,-999.0,78,0.00,,,0.00,Wunderground v.1.15,2013-09-08 15:35:00,
2013-09-08 05:40:00,75.4,68.1,30.06,ENE,68,2.0,-999.0,78,0.00,,,0.00,Wunderground v.1.15,2013-09-08 15:40:00,
2013-09-08 05:45:00,75.9,68.2,30.07,East,90,2.0,-999.0,77,0.00,,,0.00,Wunderground v.1.15,2013-09-08 15:45:00,
2013-09-08 05:50:00,75.9,68.2,30.07,East,90,2.0,-999.0,77,0.00,,,0.00,Wunderground v.1.15,2013-09-08 15:50:00,
2013-09-08 05:55:00,75.9,68.2,30.07,East,90,2.0,-999.0,77,0.00,,,0.00,Wunderground v.1.15,2013-09-08 15:55:00,
2013-09-08 06:00:00,75.9,68.2,30.07,East,90,2.0,-999.0,77,0.00,,,0.00,Wunderground v.1.15,2013-09-08 16:00:00,
2013-09-08 06:05:00,75.9,68.2,30.07,East,90,2.0,-999.0,77,0.00,,,0.00,Wunderground v.1.15,2013-09-08 16:05:00,
2013-09-08 06:10:00,75.9,68.2,30.07,East,90,2.0,-999.0,77,0.00,,,0.00,Wunderground v.1.15,2013-09-08 16:10:00,
2013-09-08 06:15:00,76.1,67.6,30.07,East,90,2.0,-999.0,75,0.00,,,0.00,Wunderground v.1.15,2013-09-08 16:15:00,
2013-09-08 06:20:00,76.1,67.6,30.07,East,90,2.0,-999.0,75,0.00,,,0.00,Wunderground v.1.15,2013-09-08 16:20:00,
2013-09-08 06:25:00,76.1,67.6,30.07,East,90,2.0,-999.0,75,0.00,,,0.00,Wunderground v.1.15,2013-09-08 16:25:00,
2013-09-08 06:30:00,76.1,67.6,30.07,East,90,2.0,-999.0,75,0.00,,,0.00,Wunderground v.1.15,2013-09-08 16:30:00,
2013-09-08 06:35:00,76.1,67.6,30.07,East,90,2.0,-999.0,75,0.00,,,0.00,Wunderground v.1.15,2013-09-08 16:35:00,
2013-09-08 06:40:00,76.1,67.6,30.07,East,90,2.0,-999.0,75,0.00,,,0.00,Wunderground v.1.15,2013-09-08 16:40:00,
2013-09-08 06:45:00,76.7,68.6,30.08,East,90,3.0,-999.0,76,0.00,,,0.00,Wunderground v.1.15,2013-09-08 16:45:00,
2013-09-08 06:50:00,76.7,68.6,30.08,East,90,3.0,-999.0,76,0.00,,,0.00,Wunderground v.1.15,2013-09-08 16:50:00,
2013-09-08 06:55:00,76.7,68.6,30.08,East,90,3.0,-999.0,76,0.00,,,0.00,Wunderground v.1.15,2013-09-08 16:55:00,
2013-09-08 07:00:00,76.7,68.6,30.08,East,90,3.0,-999.0,76,0.00,,,0.00,Wunderground v.1.15,2013-09-08 17:00:00,
2013-09-08 07:05:00,76.7,68.6,30.08,East,90,3.0,-999.0,76,0.00,,,0.00,Wunderground v.1.15,2013-09-08 17:05:00,
2013-09-08 07:10:00,76.7,68.6,30.08,East,90,3.0,-999.0,76,0.00,,,0.00,Wunderground v.1.15,2013-09-08 17:10:00,
2013-09-08 07:15:00,77.2,67.5,30.08,East,90,1.0,-999.0,72,0.00,,,0.00,Wunderground v.1.15,2013-09-08 17:15:00,
2013-09-08 07:20:00,77.2,67.5,30.08,East,90,1.0,-999.0,72,0.00,,,0.00,Wunderground v.1.15,2013-09-08 17:20:00,
2013-09-08 07:25:00,77.2,67.5,30.08,East,90,1.0,-999.0,72,0.00,,,0.00,Wunderground v.1.15,2013-09-08 17:25:00,
2013-09-08 07:30:00,77.2,67.5,30.08,East,90,1.0,-999.0,72,0.00,,,0.00,Wunderground v.1.15,2013-09-08 17:30:00,
2013-09-08 07:35:00,77.2,67.5,30.08,East,90,1.0,-999.0,72,0.00,,,0.00,Wunderground v.1.15,2013-09-08 17:35:00,
2013-09-08 07:40:00,77.2,67.5,30.08,East,90,1.0,-999.0,72,0.00,,,0.00,Wunderground v.1.15,2013-09-08 17:40:00,
2013-09-08 07:45:00,79.9,67.5,30.09,East,90,2.0,-999.0,66,0.00,,,0.00,Wunderground v.1.15,2013-09-08 17:45:00,
2013-09-08 07:50:00,79.9,67.5,30.09,East,90,2.0,-999.0,66,0.00,,,0.00,Wunderground v.1.15,2013-09-08 17:50:00,
2013-09-08 07:55:00,79.9,67.5,30.09,East,90,2.0,-999.0,66,0.00,,,0.00,Wunderground v.1.15,2013-09-08 17:55:00,
2013-09-08 08:00:00,79.9,67.5,30.09,East,90,2.0,-999.0,66,0.00,,,0.00,Wunderground v.1.15,2013-09-08 18:00:00,
2013-09-08 08:05:00,79.9,67.5,30.09,East,90,2.0,-999.0,66,0.00,,,0.00,Wunderground v.1.15,2013-09-08 18:05:00,
2013-09-08 08:10:00,79.9,67.5,30.09,East,90,2.0,-999.0,66,0.00,,,0.00,Wunderground v.1.15,2013-09-08 18:10:00,
2013-09-08 08:15:00,82.2,69.3,30.09,East,90,2.0,-999.0,65,0.00,,,0.00,Wunderground v.1.15,2013-09-08 18:15:00,
2013-09-08 08:20:00,82.2,69.3,30.09,East,90,2.0,-999.0,65,0.00,,,0.00,Wunderground v.1.15,2013-09-08 18:20:00,
2013-09-08 08:25:00,82.2,69.3,30.09,East,90,2.0,-999.0,65,0.00,,,0.00,Wunderground v.1.15,2013-09-08 18:25:00,
2013-09-08 08:30:00,82.2,69.3,30.09,East,90,2.0,-999.0,65,0.00,,,0.00,Wunderground v.1.15,2013-09-08 18:30:00,
2013-09-08 08:35:00,82.2,69.3,30.09,East,90,2.0,-999.0,65,0.00,,,0.00,Wunderground v.1.15,2013-09-08 18:35:00,
2013-09-08 08:40:00,82.2,69.3,30.09,East,90,2.0,-999.0,65,0.00,,,0.00,Wunderground v.1.15,2013-09-08 18:40:00,
2013-09-08 08:45:00,84.5,69.6,30.10,ENE,68,3.0,-999.0,61,0.00,,,0.00,Wunderground v.1.15,2013-09-08 18:45:00,
2013-09-08 08:50:00,84.5,69.6,30.10,ENE,68,3.0,-999.0,61,0.00,,,0.00,Wunderground v.1.15,2013-09-08 18:50:00,
2013-09-08 08:55:00,84.5,69.6,30.10,ENE,68,3.0,-999.0,61,0.00,,,0.00,Wunderground v.1.15,2013-09-08 18:55:00,
2013-09-08 09:00:00,84.5,69.6,30.10,ENE,68,3.0,-999.0,61,0.00,,,0.00,Wunderground v.1.15,2013-09-08 19:00:00,
2013-09-08 09:05:00,84.5,69.6,30.10,ENE,68,3.0,-999.0,61,0.00,,,0.00,Wunderground v.1.15,2013-09-08 19:05:00,
2013-09-08 09:07:00,84.5,69.6,30.10,ENE,68,3.0,-999.0,61,0.00,,,0.00,Wunderground v.1.15,2013-09-08 19:07:00,
2013-09-08 09:10:00,84.5,69.6,30.10,ENE,68,3.0,-999.0,61,0.00,,,0.00,Wunderground v.1.15,2013-09-08 19:10:00,
2013-09-08 09:15:00,86.1,70.6,30.10,NE,45,5.0,-999.0,60,0.00,,,0.00,Wunderground v.1.15,2013-09-08 19:15:00,
2013-09-08 09:20:00,86.1,70.6,30.10,NE,45,5.0,-999.0,60,0.00,,,0.00,Wunderground v.1.15,2013-09-08 19:20:00,
2013-09-08 09:25:00,86.1,70.6,30.10,NE,45,5.0,-999.0,60,0.00,,,0.00,Wunderground v.1.15,2013-09-08 19:25:00,
2013-09-08 09:30:00,86.1,70.6,30.10,NE,45,5.0,-999.0,60,0.00,,,0.00,Wunderground v.1.15,2013-09-08 19:30:00,
2013-09-08 09:35:00,86.1,70.6,30.10,NE,45,5.0,-999.0,60,0.00,,,0.00,Wunderground v.1.15,2013-09-08 19:35:00,
2013-09-08 09:40:00,86.1,70.6,30.10,NE,45,5.0,-999.0,60,0.00,,,0.00,Wunderground v.1.15,2013-09-08 19:40:00,
2013-09-08 09:45:00,87.3,69.2,30.10,NE,45,5.0,-999.0,55,0.00,,,0.00,Wunderground v.1.15,2013-09-08 19:45:00,
2013-09-08 09:50:00,87.3,69.2,30.10,NE,45,5.0,-999.0,55,0.00,,,0.00,Wunderground v.1.15,2013-09-08 19:50:00,
2013-09-08 09:55:00,87.3,69.2,30.10,NE,45,5.0,-999.0,55,0.00,,,0.00,Wunderground v.1.15,2013-09-08 19:55:00,
2013-09-08 10:00:00,87.3,69.2,30.10,NE,45,5.0,-999.0,55,0.00,,,0.00,Wunderground v.1.15,2013-09-08 20:00:00,
2013-09-08 10:05:00,87.3,69.2,30.10,NE,45,5.0,-999.0,55,0.00,,,0.00,Wunderground v.1.15,2013-09-08 20:05:00,
2013-09-08 10:10:00,87.3,69.2,30.10,NE,45,5.0,-999.0,55,0.00,,,0.00,Wunderground v.1.15,2013-09-08 20:10:00,
2013-09-08 10:15:00,88.1,70.4,30.10,ENE,68,5.0,-999.0,56,0.00,,,0.00,Wunderground v.1.15,2013-09-08 20:15:00,
2013-09-08 10:20:00,88.1,70.4,30.10,ENE,68,5.0,-999.0,56,0.00,,,0.00,Wunderground v.1.15,2013-09-08 20:20:00,
2013-09-08 10:25:00,88.1,70.4,30.10,ENE,68,5.0,-999.0,56,0.00,,,0.00,Wunderground v.1.15,2013-09-08 20:25:00,
2013-09-08 10:30:00,88.1,70.4,30.10,ENE,68,5.0,-999.0,56,0.00,,,0.00,Wunderground v.1.15,2013-09-08 20:30:00,
2013-09-08 10:35:00,88.1,70.4,30.10,ENE,68,5.0,-999.0,56,0.00,,,0.00,Wunderground v.1.15,2013-09-08 20:35:00,
2013-09-08 10:40:00,88.1,70.4,30.10,ENE,68,5.0,-999.0,56,0.00,,,0.00,Wunderground v.1.15,2013-09-08 20:40:00,
2013-09-08 10:45:00,89.9,70.5,30.09,NE,45,6.0,-999.0,53,0.00,,,0.00,Wunderground v.1.15,2013-09-08 20:45:00,
2013-09-08 10:50:00,89.9,70.5,30.09,NE,45,6.0,-999.0,53,0.00,,,0.00,Wunderground v.1.15,2013-09-08 20:50:00,
2013-09-08 10:55:00,89.9,70.5,30.09,NE,45,6.0,-999.0,53,0.00,,,0.00,Wunderground v.1.15,2013-09-08 20:55:00,
2013-09-08 11:00:00,89.9,70.5,30.09,NE,45,6.0,-999.0,53,0.00,,,0.00,Wunderground v.1.15,2013-09-08 21:00:00,
2013-09-08 11:05:00,89.9,70.5,30.09,NE,45,6.0,-999.0,53,0.00,,,0.00,Wunderground v.1.15,2013-09-08 21:05:00,
2013-09-08 11:10:00,89.9,70.5,30.09,NE,45,6.0,-999.0,53,0.00,,,0.00,Wunderground v.1.15,2013-09-08 21:10:00,
2013-09-08 11:15:00,89.9,70.5,30.09,NE,45,6.0,-999.0,53,0.00,,,0.00,Wunderground v.1.15,2013-09-08 21:15:00,
2013-09-08 11:20:00,89.9,70.5,30.09,NE,45,6.0,-999.0,53,0.00,,,0.00,Wunderground v.1.15,2013-09-08 21:20:00,
2013-09-08 11:25:00,89.9,70.5,30.09,NE,45,6.0,-999.0,53,0.00,,,0.00,Wunderground v.1.15,2013-09-08 21:25:00,
2013-09-08 11:30:00,89.9,70.5,30.09,NE,45,6.0,-999.0,53,0.00,,,0.00,Wunderground v.1.15,2013-09-08 21:30:00,
2013-09-08 11:35:00,89.9,70.5,30.09,NE,45,6.0,-999.0,53,0.00,,,0.00,Wunderground v.1.15,2013-09-08 21:35:00,
2013-09-08 11:40:00,89.9,70.5,30.09,NE,45,6.0,-999.0,53,0.00,,,0.00,Wunderground v.1.15,2013-09-08 21:40:00,
2013-09-08 11:45:00,89.7,70.8,30.08,NE,45,7.0,-999.0,54,0.00,,,0.00,Wunderground v.1.15,2013-09-08 21:45:00,
2013-09-08 11:50:00,89.7,70.8,30.08,NE,45,7.0,-999.0,54,0.00,,,0.00,Wunderground v.1.15,2013-09-08 21:50:00,
2013-09-08 11:55:00,89.7,70.8,30.08,NE,45,7.0,-999.0,54,0.00,,,0.00,Wunderground v.1.15,2013-09-08 21:55:00,
2013-09-08 12:00:00,89.7,70.8,30.08,NE,45,7.0,-999.0,54,0.00,,,0.00,Wunderground v.1.15,2013-09-08 22:00:00,
2013-09-08 12:05:00,89.7,70.8,30.08,NE,45,7.0,-999.0,54,0.00,,,0.00,Wunderground v.1.15,2013-09-08 22:05:00,
2013-09-08 12:10:00,89.7,70.8,30.08,NE,45,7.0,-999.0,54,0.00,,,0.00,Wunderground v.1.15,2013-09-08 22:10:00,
2013-09-08 12:15:00,90.6,70.0,30.08,NE,45,6.0,-999.0,51,0.00,,,0.00,Wunderground v.1.15,2013-09-08 22:15:00,
2013-09-08 12:20:00,90.6,70.0,30.08,NE,45,6.0,-999.0,51,0.00,,,0.00,Wunderground v.1.15,2013-09-08 22:20:00,
2013-09-08 12:25:00,90.6,70.0,30.08,NE,45,6.0,-999.0,51,0.00,,,0.00,Wunderground v.1.15,2013-09-08 22:25:00,
2013-09-08 12:30:00,90.6,70.0,30.08,NE,45,6.0,-999.0,51,0.00,,,0.00,Wunderground v.1.15,2013-09-08 22:30:00,
2013-09-08 12:35:00,90.6,70.0,30.08,NE,45,6.0,-999.0,51,0.00,,,0.00,Wunderground v.1.15,2013-09-08 22:35:00,
2013-09-08 12:40:00,90.6,70.0,30.08,NE,45,6.0,-999.0,51,0.00,,,0.00,Wunderground v.1.15,2013-09-08 22:40:00,
2013-09-08 12:45:00,91.6,70.3,30.07,NE,45,7.0,-999.0,50,0.00,,,0.00,Wunderground v.1.15,2013-09-08 22:45:00,
2013-09-08 12:50:00,91.6,70.3,30.07,NE,45,7.0,-999.0,50,0.00,,,0.00,Wunderground v.1.15,2013-09-08 22:50:00,
2013-09-08 12:55:00,91.6,70.3,30.07,NE,45,7.0,-999.0,50,0.00,,,0.00,Wunderground v.1.15,2013-09-08 22:55:00,
2013-09-08 13:00:00,91.6,70.3,30.07,NE,45,7.0,-999.0,50,0.00,,,0.00,Wunderground v.1.15,2013-09-08 23:00:00,
2013-09-08 13:05:00,91.6,70.3,30.07,NE,45,7.0,-999.0,50,0.00,,,0.00,Wunderground v.1.15,2013-09-08 23:05:00,
2013-09-08 13:10:00,91.6,70.3,30.07,NE,45,7.0,-999.0,50,0.00,,,0.00,Wunderground v.1.15,2013-09-08 23:10:00,
2013-09-08 13:15:00,91.1,71.0,30.06,NE,45,8.0,-999.0,52,0.00,,,0.00,Wunderground v.1.15,2013-09-08 23:15:00,
2013-09-08 13:20:00,91.1,71.0,30.06,NE,45,8.0,-999.0,52,0.00,,,0.00,Wunderground v.1.15,2013-09-08 23:20:00,
2013-09-08 13:25:00,91.1,71.0,30.06,NE,45,8.0,-999.0,52,0.00,,,0.00,Wunderground v.1.15,2013-09-08 23:25:00,
2013-09-08 13:30:00,91.1,71.0,30.06,NE,45,8.0,-999.0,52,0.00,,,0.00,Wunderground v.1.15,2013-09-08 23:30:00,
2013-09-08 13:35:00,91.1,71.0,30.06,NE,45,8.0,-999.0,52,0.00,,,0.00,Wunderground v.1.15,2013-09-08 23:35:00,
2013-09-08 13:40:00,91.1,71.0,30.06,NE,45,8.0,-999.0,52,0.00,,,0.00,Wunderground v.1.15,2013-09-08 23:40:00,
2013-09-08 13:45:00,90.2,70.8,30.05,NE,45,8.0,-999.0,53,0.00,,,0.00,Wunderground v.1.15,2013-09-08 23:45:00,
2013-09-08 13:50:00,90.2,70.8,30.05,NE,45,8.0,-999.0,53,0.00,,,0.00,Wunderground v.1.15,2013-09-08 23:50:00,
2013-09-08 13:55:00,90.2,70.8,30.05,NE,45,8.0,-999.0,53,0.00,,,0.00,Wunderground v.1.15,2013-09-08 23:55:00,
2013-09-08 14:00:00,90.2,70.8,30.05,NE,45,8.0,-999.0,53,0.00,,,0.00,Wunderground v.1.15,2013-09-09 00:00:00,
2013-09-08 14:05:00,90.2,70.8,30.05,NE,45,8.0,-999.0,53,0.00,,,0.00,Wunderground v.1.15,2013-09-09 00:05:00,
2013-09-08 14:10:00,90.2,70.8,30.05,NE,45,8.0,-999.0,53,0.00,,,0.00,Wunderground v.1.15,2013-09-09 00:10:00,
2013-09-08 14:15:00,90.5,70.5,30.04,NE,45,9.0,-999.0,52,0.00,,,0.00,Wunderground v.1.15,2013-09-09 00:15:00,
2013-09-08 14:20:00,90.5,70.5,30.04,NE,45,9.0,-999.0,52,0.00,,,0.00,Wunderground v.1.15,2013-09-09 00:20:00,
2013-09-08 14:25:00,90.5,70.5,30.04,NE,45,9.0,-999.0,52,0.00,,,0.00,Wunderground v.1.15,2013-09-09 00:25:00,
2013-09-08 14:30:00,91.0,71.5,30.04,NE,46,9.0,15.0,53,0.00,,,0.00,Wunderground v.1.15,2013-09-09 00:30:00,
2013-09-08 14:35:00,90.5,70.5,30.04,NE,45,9.0,-999.0,52,0.00,,,0.00,Wunderground v.1.15,2013-09-09 00:35:00,
2013-09-08 14:40:00,90.5,70.5,30.04,NE,45,9.0,-999.0,52,0.00,,,0.00,Wunderground v.1.15,2013-09-09 00:40:00,
2013-09-08 14:45:00,90.3,71.4,30.03,NE,45,8.0,-999.0,54,0.00,,,0.00,Wunderground v.1.15,2013-09-09 00:45:00,
2013-09-08 14:50:00,90.3,71.4,30.03,NE,45,8.0,-999.0,54,0.00,,,0.00,Wunderground v.1.15,2013-09-09 00:50:00,
2013-09-08 14:55:00,90.3,71.4,30.03,NE,45,8.0,-999.0,54,0.00,,,0.00,Wunderground v.1.15,2013-09-09 00:55:00,
2013-09-08 15:00:00,90.3,71.4,30.03,NE,45,8.0,-999.0,54,0.00,,,0.00,Wunderground v.1.15,2013-09-09 01:00:00,
2013-09-08 15:05:00,90.3,71.4,30.03,NE,45,8.0,-999.0,54,0.00,,,0.00,Wunderground v.1.15,2013-09-09 01:05:00,
2013-09-08 15:10:00,90.3,71.4,30.03,NE,45,8.0,-999.0,54,0.00,,,0.00,Wunderground v.1.15,2013-09-09 01:10:00,
2013-09-08 15:15:00,89.0,70.7,30.03,NE,45,9.0,-999.0,55,0.00,,,0.00,Wunderground v.1.15,2013-09-09 01:15:00,
2013-09-08 15:20:00,89.0,70.7,30.03,NE,45,9.0,-999.0,55,0.00,,,0.00,Wunderground v.1.15,2013-09-09 01:20:00,
2013-09-08 15:25:00,89.0,70.7,30.03,NE,45,9.0,-999.0,55,0.00,,,0.00,Wunderground v.1.15,2013-09-09 01:25:00,
2013-09-08 15:30:00,89.0,70.7,30.03,NE,45,9.0,-999.0,55,0.00,,,0.00,Wunderground v.1.15,2013-09-09 01:30:00,
2013-09-08 15:35:00,89.0,70.7,30.03,NE,45,9.0,-999.0,55,0.00,,,0.00,Wunderground v.1.15,2013-09-09 01:35:00,
2013-09-08 15:40:00,89.0,70.7,30.03,NE,45,9.0,-999.0,55,0.00,,,0.00,Wunderground v.1.15,2013-09-09 01:40:00,
2013-09-08 15:45:00,88.6,70.4,30.03,NE,45,9.0,-999.0,55,0.00,,,0.00,Wunderground v.1.15,2013-09-09 01:45:00,
2013-09-08 15:50:00,88.6,70.4,30.03,NE,45,9.0,-999.0,55,0.00,,,0.00,Wunderground v.1.15,2013-09-09 01:50:00,
2013-09-08 15:55:00,88.6,70.4,30.03,NE,45,9.0,-999.0,55,0.00,,,0.00,Wunderground v.1.15,2013-09-09 01:55:00,
2013-09-08 16:00:00,88.6,70.4,30.03,NE,45,9.0,-999.0,55,0.00,,,0.00,Wunderground v.1.15,2013-09-09 02:00:00,
2013-09-08 16:05:00,88.6,70.4,30.03,NE,45,9.0,-999.0,55,0.00,,,0.00,Wunderground v.1.15,2013-09-09 02:05:00,
2013-09-08 16:10:00,88.6,70.4,30.03,NE,45,9.0,-999.0,55,0.00,,,0.00,Wunderground v.1.15,2013-09-09 02:10:00,
2013-09-08 16:15:00,87.8,70.1,30.04,NE,45,8.0,-999.0,56,0.00,,,0.00,Wunderground v.1.15,2013-09-09 02:15:00,
2013-09-08 16:20:00,87.8,70.1,30.04,NE,45,8.0,-999.0,56,0.00,,,0.00,Wunderground v.1.15,2013-09-09 02:20:00,
2013-09-08 16:25:00,87.8,70.1,30.04,NE,45,8.0,-999.0,56,0.00,,,0.00,Wunderground v.1.15,2013-09-09 02:25:00,
2013-09-08 16:30:00,87.8,70.1,30.04,NE,45,8.0,-999.0,56,0.00,,,0.00,Wunderground v.1.15,2013-09-09 02:30:00,
2013-09-08 16:35:00,87.8,70.1,30.04,NE,45,8.0,-999.0,56,0.00,,,0.00,Wunderground v.1.15,2013-09-09 02:35:00,
2013-09-08 16:40:00,87.8,70.1,30.04,NE,45,8.0,-999.0,56,0.00,,,0.00,Wunderground v.1.15,2013-09-09 02:40:00,
2013-09-08 16:45:00,87.4,71.3,30.05,NE,45,7.0,-999.0,59,0.00,,,0.00,Wunderground v.1.15,2013-09-09 02:45:00,
2013-09-08 16:50:00,87.4,71.3,30.05,NE,45,7.0,-999.0,59,0.00,,,0.00,Wunderground v.1.15,2013-09-09 02:50:00,
2013-09-08 16:55:00,87.4,71.3,30.05,NE,45,7.0,-999.0,59,0.00,,,0.00,Wunderground v.1.15,2013-09-09 02:55:00,
2013-09-08 17:00:00,87.4,71.3,30.05,NE,45,7.0,-999.0,59,0.00,,,0.00,Wunderground v.1.15,2013-09-09 03:00:00,
2013-09-08 17:05:00,87.4,71.3,30.05,NE,45,7.0,-999.0,59,0.00,,,0.00,Wunderground v.1.15,2013-09-09 03:05:00,
2013-09-08 17:10:00,87.4,71.3,30.05,NE,45,7.0,-999.0,59,0.00,,,0.00,Wunderground v.1.15,2013-09-09 03:10:00,
2013-09-08 17:15:00,85.6,70.6,30.06,NE,45,8.0,-999.0,61,0.00,,,0.00,Wunderground v.1.15,2013-09-09 03:15:00,
2013-09-08 17:20:00,85.6,70.6,30.06,NE,45,8.0,-999.0,61,0.00,,,0.00,Wunderground v.1.15,2013-09-09 03:20:00,
2013-09-08 17:25:00,85.6,70.6,30.06,NE,45,8.0,-999.0,61,0.00,,,0.00,Wunderground v.1.15,2013-09-09 03:25:00,
2013-09-08 17:30:00,85.6,70.6,30.06,NE,45,8.0,-999.0,61,0.00,,,0.00,Wunderground v.1.15,2013-09-09 03:30:00,
2013-09-08 17:35:00,85.6,70.6,30.06,NE,45,8.0,-999.0,61,0.00,,,0.00,Wunderground v.1.15,2013-09-09 03:35:00,
2013-09-08 17:40:00,85.6,70.6,30.06,NE,45,8.0,-999.0,61,0.00,,,0.00,Wunderground v.1.15,2013-09-09 03:40:00,
2013-09-08 17:45:00,83.9,70.0,30.07,NE,45,5.0,-999.0,63,0.00,,,0.00,Wunderground v.1.15,2013-09-09 03:45:00,
2013-09-08 17:50:00,83.9,70.0,30.07,NE,45,5.0,-999.0,63,0.00,,,0.00,Wunderground v.1.15,2013-09-09 03:50:00,
2013-09-08 17:55:00,83.9,70.0,30.07,NE,45,5.0,-999.0,63,0.00,,,0.00,Wunderground v.1.15,2013-09-09 03:55:00,
2013-09-08 18:00:00,83.9,70.0,30.07,NE,45,5.0,-999.0,63,0.00,,,0.00,Wunderground v.1.15,2013-09-09 04:00:00,
2013-09-08 18:05:00,83.9,70.0,30.07,NE,45,5.0,-999.0,63,0.00,,,0.00,Wunderground v.1.15,2013-09-09 04:05:00,
2013-09-08 18:10:00,83.9,70.0,30.07,NE,45,5.0,-999.0,63,0.00,,,0.00,Wunderground v.1.15,2013-09-09 04:10:00,
2013-09-08 18:15:00,82.1,70.1,30.08,ENE,68,4.0,-999.0,67,0.00,,,0.00,Wunderground v.1.15,2013-09-09 04:15:00,
2013-09-08 18:20:00,82.1,70.1,30.08,ENE,68,4.0,-999.0,67,0.00,,,0.00,Wunderground v.1.15,2013-09-09 04:20:00,
2013-09-08 18:25:00,82.1,70.1,30.08,ENE,68,4.0,-999.0,67,0.00,,,0.00,Wunderground v.1.15,2013-09-09 04:25:00,
2013-09-08 18:30:00,82.1,70.1,30.08,ENE,68,4.0,-999.0,67,0.00,,,0.00,Wunderground v.1.15,2013-09-09 04:30:00,
2013-09-08 18:35:00,82.1,70.1,30.08,ENE,68,4.0,-999.0,67,0.00,,,0.00,Wunderground v.1.15,2013-09-09 04:35:00,
2013-09-08 18:40:00,82.1,70.1,30.08,ENE,68,4.0,-999.0,67,0.00,,,0.00,Wunderground v.1.15,2013-09-09 04:40:00,
2013-09-08 18:45:00,79.8,69.6,30.08,NE,45,3.0,-999.0,71,0.00,,,0.00,Wunderground v.1.15,2013-09-09 04:45:00,
2013-09-08 18:50:00,79.8,69.6,30.08,NE,45,3.0,-999.0,71,0.00,,,0.00,Wunderground v.1.15,2013-09-09 04:50:00,
2013-09-08 18:55:00,79.8,69.6,30.08,NE,45,3.0,-999.0,71,0.00,,,0.00,Wunderground v.1.15,2013-09-09 04:55:00,
2013-09-08 19:00:00,79.8,69.6,30.08,NE,45,3.0,-999.0,71,0.00,,,0.00,Wunderground v.1.15,2013-09-09 05:00:00,
2013-09-08 19:05:00,79.8,69.6,30.08,NE,45,3.0,-999.0,71,0.00,,,0.00,Wunderground v.1.15,2013-09-09 05:05:00,
2013-09-08 19:10:00,79.8,69.6,30.08,NE,45,3.0,-999.0,71,0.00,,,0.00,Wunderground v.1.15,2013-09-09 05:10:00,
2013-09-08 19:15:00,78.7,69.3,30.10,ENE,68,3.0,-999.0,73,0.00,,,0.00,Wunderground v.1.15,2013-09-09 05:15:00,
2013-09-08 19:20:00,78.7,69.3,30.10,ENE,68,3.0,-999.0,73,0.00,,,0.00,Wunderground v.1.15,2013-09-09 05:20:00,
2013-09-08 19:25:00,78.7,69.3,30.10,ENE,68,3.0,-999.0,73,0.00,,,0.00,Wunderground v.1.15,2013-09-09 05:25:00,
2013-09-08 19:30:00,78.7,69.3,30.10,ENE,68,3.0,-999.0,73,0.00,,,0.00,Wunderground v.1.15,2013-09-09 05:30:00,
2013-09-08 19:35:00,78.7,69.3,30.10,ENE,68,3.0,-999.0,73,0.00,,,0.00,Wunderground v.1.15,2013-09-09 05:35:00,
2013-09-08 19:40:00,78.7,69.3,30.10,ENE,68,3.0,-999.0,73,0.00,,,0.00,Wunderground v.1.15,2013-09-09 05:40:00,
2013-09-08 19:45:00,78.3,68.9,30.11,ENE,68,2.0,-999.0,73,0.00,,,0.00,Wunderground v.1.15,2013-09-09 05:45:00,
2013-09-08 19:50:00,78.3,68.9,30.11,ENE,68,2.0,-999.0,73,0.00,,,0.00,Wunderground v.1.15,2013-09-09 05:50:00,
2013-09-08 19:55:00,78.3,68.9,30.11,ENE,68,2.0,-999.0,73,0.00,,,0.00,Wunderground v.1.15,2013-09-09 05:55:00,
2013-09-08 20:00:00,78.3,68.9,30.11,ENE,68,2.0,-999.0,73,0.00,,,0.00,Wunderground v.1.15,2013-09-09 06:00:00,
2013-09-08 20:05:00,78.3,68.9,30.11,ENE,68,2.0,-999.0,73,0.02,,,0.03,Wunderground v.1.15,2013-09-09 06:05:00,
2013-09-08 20:10:00,78.3,68.9,30.11,ENE,68,2.0,-999.0,73,0.02,,,0.03,Wunderground v.1.15,2013-09-09 06:10:00,
2013-09-08 20:15:00,77.8,68.0,30.11,ENE,68,2.0,-999.0,72,0.02,,,0.03,Wunderground v.1.15,2013-09-09 06:15:00,
2013-09-08 20:20:00,77.8,68.0,30.11,ENE,68,2.0,-999.0,72,0.02,,,0.03,Wunderground v.1.15,2013-09-09 06:20:00,
2013-09-08 20:25:00,77.8,68.0,30.11,ENE,68,2.0,-999.0,72,0.02,,,0.03,Wunderground v.1.15,2013-09-09 06:25:00,
2013-09-08 20:30:00,77.8,68.0,30.11,ENE,68,2.0,-999.0,72,0.02,,,0.03,Wunderground v.1.15,2013-09-09 06:30:00,
2013-09-08 20:35:00,77.8,68.0,30.11,ENE,68,2.0,-999.0,72,0.02,,,0.03,Wunderground v.1.15,2013-09-09 06:35:00,
2013-09-08 20:40:00,77.8,68.0,30.11,ENE,68,2.0,-999.0,72,0.02,,,0.03,Wunderground v.1.15,2013-09-09 06:40:00,
2013-09-08 20:45:00,77.4,67.3,30.12,East,90,2.0,-999.0,71,0.00,,,0.03,Wunderground v.1.15,2013-09-09 06:45:00,
2013-09-08 20:50:00,77.4,67.3,30.12,East,90,2.0,-999.0,71,0.00,,,0.03,Wunderground v.1.15,2013-09-09 06:50:00,
2013-09-08 20:55:00,77.4,67.3,30.12,East,90,2.0,-999.0,71,0.00,,,0.03,Wunderground v.1.15,2013-09-09 06:55:00,
2013-09-08 21:00:00,77.4,67.3,30.12,East,90,2.0,-999.0,71,0.00,,,0.03,Wunderground v.1.15,2013-09-09 07:00:00,
2013-09-08 21:05:00,77.4,67.3,30.12,East,90,2.0,-999.0,71,0.00,,,0.03,Wunderground v.1.15,2013-09-09 07:05:00,
2013-09-08 21:10:00,77.4,67.3,30.12,East,90,2.0,-999.0,71,0.00,,,0.03,Wunderground v.1.15,2013-09-09 07:10:00,
2013-09-08 21:15:00,76.9,67.6,30.13,East,90,2.0,-999.0,73,0.00,,,0.03,Wunderground v.1.15,2013-09-09 07:15:00,
2013-09-08 21:20:00,76.9,67.6,30.13,East,90,2.0,-999.0,73,0.00,,,0.03,Wunderground v.1.15,2013-09-09 07:20:00,
2013-09-08 21:25:00,76.9,67.6,30.13,East,90,2.0,-999.0,73,0.00,,,0.03,Wunderground v.1.15,2013-09-09 07:25:00,
2013-09-08 21:30:00,76.9,67.6,30.13,East,90,2.0,-999.0,73,0.00,,,0.03,Wunderground v.1.15,2013-09-09 07:30:00,
2013-09-08 21:35:00,76.9,67.6,30.13,East,90,2.0,-999.0,73,0.00,,,0.03,Wunderground v.1.15,2013-09-09 07:35:00,
2013-09-08 21:40:00,76.9,67.6,30.13,East,90,2.0,-999.0,73,0.00,,,0.03,Wunderground v.1.15,2013-09-09 07:40:00,
2013-09-08 21:45:00,76.7,67.4,30.13,ENE,68,2.0,-999.0,73,0.00,,,0.03,Wunderground v.1.15,2013-09-09 07:45:00,
2013-09-08 21:50:00,76.7,67.4,30.13,ENE,68,2.0,-999.0,73,0.00,,,0.03,Wunderground v.1.15,2013-09-09 07:50:00,
2013-09-08 21:55:00,76.7,67.4,30.13,ENE,68,2.0,-999.0,73,0.00,,,0.03,Wunderground v.1.15,2013-09-09 07:55:00,
2013-09-08 22:00:00,76.7,67.4,30.13,ENE,68,2.0,-999.0,73,0.00,,,0.03,Wunderground v.1.15,2013-09-09 08:00:00,
2013-09-08 22:05:00,76.7,67.4,30.13,ENE,68,2.0,-999.0,73,0.00,,,0.03,Wunderground v.1.15,2013-09-09 08:05:00,
2013-09-08 22:10:00,76.7,67.4,30.13,ENE,68,2.0,-999.0,73,0.00,,,0.03,Wunderground v.1.15,2013-09-09 08:10:00,
2013-09-08 22:15:00,76.4,67.9,30.12,NE,45,3.0,-999.0,75,0.00,,,0.03,Wunderground v.1.15,2013-09-09 08:15:00,
2013-09-08 22:20:00,76.4,67.9,30.12,NE,45,3.0,-999.0,75,0.00,,,0.03,Wunderground v.1.15,2013-09-09 08:20:00,
2013-09-08 22:25:00,76.4,67.9,30.12,NE,45,3.0,-999.0,75,0.00,,,0.03,Wunderground v.1.15,2013-09-09 08:25:00,
2013-09-08 22:30:00,76.4,67.9,30.12,NE,45,3.0,-999.0,75,0.00,,,0.03,Wunderground v.1.15,2013-09-09 08:30:00,
2013-09-08 22:35:00,76.4,67.9,30.12,NE,45,3.0,-999.0,75,0.00,,,0.03,Wunderground v.1.15,2013-09-09 08:35:00,
2013-09-08 22:40:00,76.4,67.9,30.12,NE,45,3.0,-999.0,75,0.00,,,0.03,Wunderground v.1.15,2013-09-09 08:40:00,
2013-09-08 22:45:00,76.6,67.7,30.12,NE,45,5.0,-999.0,74,0.01,,,0.03,Wunderground v.1.15,2013-09-09 08:45:00,
2013-09-08 22:50:00,76.6,67.7,30.12,NE,45,5.0,-999.0,74,0.01,,,0.03,Wunderground v.1.15,2013-09-09 08:50:00,
2013-09-08 22:55:00,76.6,67.7,30.12,NE,45,5.0,-999.0,74,0.01,,,0.03,Wunderground v.1.15,2013-09-09 08:55:00,
2013-09-08 23:00:00,76.6,67.7,30.12,NE,45,5.0,-999.0,74,0.01,,,0.03,Wunderground v.1.15,2013-09-09 09:00:00,
2013-09-08 23:05:00,76.6,67.7,30.12,NE,45,5.0,-999.0,74,0.01,,,0.03,Wunderground v.1.15,2013-09-09 09:05:00,
2013-09-08 23:10:00,76.6,67.7,30.12,NE,45,5.0,-999.0,74,0.01,,,0.03,Wunderground v.1.15,2013-09-09 09:10:00,
2013-09-08 23:15:00,76.3,69.3,30.12,NE,45,4.0,-999.0,79,0.01,,,0.03,Wunderground v.1.15,2013-09-09 09:15:00,
2013-09-08 23:20:00,76.3,69.3,30.12,NE,45,4.0,-999.0,79,0.01,,,0.03,Wunderground v.1.15,2013-09-09 09:20:00,
2013-09-08 23:25:00,76.3,69.3,30.12,NE,45,4.0,-999.0,79,0.01,,,0.03,Wunderground v.1.15,2013-09-09 09:25:00,
2013-09-08 23:30:00,76.3,69.3,30.12,NE,45,4.0,-999.0,79,0.01,,,0.03,Wunderground v.1.15,2013-09-09 09:30:00,
2013-09-08 23:35:00,76.3,69.3,30.12,NE,45,4.0,-999.0,79,0.01,,,0.03,Wunderground v.1.15,2013-09-09 09:35:00,
2013-09-08 23:40:00,76.3,69.3,30.12,NE,45,4.0,-999.0,79,0.01,,,0.03,Wunderground v.1.15,2013-09-09 09:40:00,
2013-09-08 23:45:00,75.9,68.9,30.12,ENE,68,3.0,-999.0,79,0.00,,,0.03,Wunderground v.1.15,2013-09-09 09:45:00,
2013-09-08 23:50:00,75.9,68.9,30.12,ENE,68,3.0,-999.0,79,0.00,,,0.03,Wunderground v.1.15,2013-09-09 09:50:00,
2013-09-08 23:55:00,75.9,68.9,30.12,ENE,68,3.0,-999.0,79,0.00,,,0.03,Wunderground v.1.15,2013-09-09 09:55:00,